Index of /20260426/WXO-DD/model_rdps/10km/18/065
Name Last modified Size Description
Parent Directory -
20260426T18Z_MSC_RDPS_AbsoluteVorticity_IsbL-0250_RLatLon0.09_PT065H.grib2 2026-04-26 21:39 632K
20260426T18Z_MSC_RDPS_AbsoluteVorticity_IsbL-0500_RLatLon0.09_PT065H.grib2 2026-04-26 21:39 692K
20260426T18Z_MSC_RDPS_AbsoluteVorticity_IsbL-0700_RLatLon0.09_PT065H.grib2 2026-04-26 21:39 614K
20260426T18Z_MSC_RDPS_AbsoluteVorticity_IsbL-0850_RLatLon0.09_PT065H.grib2 2026-04-26 21:39 775K
20260426T18Z_MSC_RDPS_AirTemp_AGL-120m_RLatLon0.09_PT065H.grib2 2026-04-26 21:39 376K
20260426T18Z_MSC_RDPS_AirTemp_AGL-2m_RLatLon0.09_PT065H.grib2 2026-04-26 21:39 631K
20260426T18Z_MSC_RDPS_AirTemp_AGL-40m_RLatLon0.09_PT065H.grib2 2026-04-26 21:39 393K
20260426T18Z_MSC_RDPS_AirTemp_AGL-80m_RLatLon0.09_PT065H.grib2 2026-04-26 21:39 383K
20260426T18Z_MSC_RDPS_AirTemp_IsbL-0001_RLatLon0.09_PT065H.grib2 2026-04-26 21:39 260K
20260426T18Z_MSC_RDPS_AirTemp_IsbL-0005_RLatLon0.09_PT065H.grib2 2026-04-26 21:39 294K
20260426T18Z_MSC_RDPS_AirTemp_IsbL-0010_RLatLon0.09_PT065H.grib2 2026-04-26 21:39 305K
20260426T18Z_MSC_RDPS_AirTemp_IsbL-0020_RLatLon0.09_PT065H.grib2 2026-04-26 21:39 319K
20260426T18Z_MSC_RDPS_AirTemp_IsbL-0030_RLatLon0.09_PT065H.grib2 2026-04-26 21:39 340K
20260426T18Z_MSC_RDPS_AirTemp_IsbL-0050_RLatLon0.09_PT065H.grib2 2026-04-26 21:39 321K
20260426T18Z_MSC_RDPS_AirTemp_IsbL-0100_RLatLon0.09_PT065H.grib2 2026-04-26 21:39 432K
20260426T18Z_MSC_RDPS_AirTemp_IsbL-0150_RLatLon0.09_PT065H.grib2 2026-04-26 21:39 430K
20260426T18Z_MSC_RDPS_AirTemp_IsbL-0175_RLatLon0.09_PT065H.grib2 2026-04-26 21:39 417K
20260426T18Z_MSC_RDPS_AirTemp_IsbL-0200_RLatLon0.09_PT065H.grib2 2026-04-26 21:39 421K
20260426T18Z_MSC_RDPS_AirTemp_IsbL-0225_RLatLon0.09_PT065H.grib2 2026-04-26 21:39 421K
20260426T18Z_MSC_RDPS_AirTemp_IsbL-0250_RLatLon0.09_PT065H.grib2 2026-04-26 21:39 431K
20260426T18Z_MSC_RDPS_AirTemp_IsbL-0275_RLatLon0.09_PT065H.grib2 2026-04-26 21:39 412K
20260426T18Z_MSC_RDPS_AirTemp_IsbL-0300_RLatLon0.09_PT065H.grib2 2026-04-26 21:39 442K
20260426T18Z_MSC_RDPS_AirTemp_IsbL-0350_RLatLon0.09_PT065H.grib2 2026-04-26 21:39 427K
20260426T18Z_MSC_RDPS_AirTemp_IsbL-0400_RLatLon0.09_PT065H.grib2 2026-04-26 21:39 426K
20260426T18Z_MSC_RDPS_AirTemp_IsbL-0450_RLatLon0.09_PT065H.grib2 2026-04-26 21:39 395K
20260426T18Z_MSC_RDPS_AirTemp_IsbL-0500_RLatLon0.09_PT065H.grib2 2026-04-26 21:39 404K
20260426T18Z_MSC_RDPS_AirTemp_IsbL-0550_RLatLon0.09_PT065H.grib2 2026-04-26 21:39 422K
20260426T18Z_MSC_RDPS_AirTemp_IsbL-0600_RLatLon0.09_PT065H.grib2 2026-04-26 21:39 438K
20260426T18Z_MSC_RDPS_AirTemp_IsbL-0650_RLatLon0.09_PT065H.grib2 2026-04-26 21:39 454K
20260426T18Z_MSC_RDPS_AirTemp_IsbL-0700_RLatLon0.09_PT065H.grib2 2026-04-26 21:39 477K
20260426T18Z_MSC_RDPS_AirTemp_IsbL-0750_RLatLon0.09_PT065H.grib2 2026-04-26 21:39 404K
20260426T18Z_MSC_RDPS_AirTemp_IsbL-0800_RLatLon0.09_PT065H.grib2 2026-04-26 21:39 451K
20260426T18Z_MSC_RDPS_AirTemp_IsbL-0850_RLatLon0.09_PT065H.grib2 2026-04-26 21:39 506K
20260426T18Z_MSC_RDPS_AirTemp_IsbL-0875_RLatLon0.09_PT065H.grib2 2026-04-26 21:39 527K
20260426T18Z_MSC_RDPS_AirTemp_IsbL-0900_RLatLon0.09_PT065H.grib2 2026-04-26 21:39 533K
20260426T18Z_MSC_RDPS_AirTemp_IsbL-0925_RLatLon0.09_PT065H.grib2 2026-04-26 21:39 527K
20260426T18Z_MSC_RDPS_AirTemp_IsbL-0950_RLatLon0.09_PT065H.grib2 2026-04-26 21:39 526K
20260426T18Z_MSC_RDPS_AirTemp_IsbL-0970_RLatLon0.09_PT065H.grib2 2026-04-26 21:39 518K
20260426T18Z_MSC_RDPS_AirTemp_IsbL-0985_RLatLon0.09_PT065H.grib2 2026-04-26 21:39 505K
20260426T18Z_MSC_RDPS_AirTemp_IsbL-1000_RLatLon0.09_PT065H.grib2 2026-04-26 21:39 487K
20260426T18Z_MSC_RDPS_AirTemp_IsbL-1015_RLatLon0.09_PT065H.grib2 2026-04-26 21:39 487K
20260426T18Z_MSC_RDPS_Albedo_Sfc_RLatLon0.09_PT065H.grib2 2026-04-26 21:39 157K
20260426T18Z_MSC_RDPS_CAPE_Sfc_RLatLon0.09_PT065H.grib2 2026-04-26 21:39 1.6M
20260426T18Z_MSC_RDPS_CIN_Sfc_RLatLon0.09_PT065H.grib2 2026-04-26 21:39 1.1M
20260426T18Z_MSC_RDPS_CloudWater_EAtm_RLatLon0.09_PT065H.grib2 2026-04-26 21:39 218K
20260426T18Z_MSC_RDPS_ConvectivePrecip-Accum_Sfc_RLatLon0.09_PT065H.grib2 2026-04-26 21:39 1.2M
20260426T18Z_MSC_RDPS_DewPointDepression_AGL-2m_RLatLon0.09_PT065H.grib2 2026-04-26 21:39 390K
20260426T18Z_MSC_RDPS_DewPointDepression_IsbL-0001_RLatLon0.09_PT065H.grib2 2026-04-26 21:39 193
20260426T18Z_MSC_RDPS_DewPointDepression_IsbL-0005_RLatLon0.09_PT065H.grib2 2026-04-26 21:39 193
20260426T18Z_MSC_RDPS_DewPointDepression_IsbL-0010_RLatLon0.09_PT065H.grib2 2026-04-26 21:39 193
20260426T18Z_MSC_RDPS_DewPointDepression_IsbL-0020_RLatLon0.09_PT065H.grib2 2026-04-26 21:39 193
20260426T18Z_MSC_RDPS_DewPointDepression_IsbL-0030_RLatLon0.09_PT065H.grib2 2026-04-26 21:39 193
20260426T18Z_MSC_RDPS_DewPointDepression_IsbL-0050_RLatLon0.09_PT065H.grib2 2026-04-26 21:39 87K
20260426T18Z_MSC_RDPS_DewPointDepression_IsbL-0100_RLatLon0.09_PT065H.grib2 2026-04-26 21:39 130K
20260426T18Z_MSC_RDPS_DewPointDepression_IsbL-0150_RLatLon0.09_PT065H.grib2 2026-04-26 21:39 148K
20260426T18Z_MSC_RDPS_DewPointDepression_IsbL-0175_RLatLon0.09_PT065H.grib2 2026-04-26 21:39 177K
20260426T18Z_MSC_RDPS_DewPointDepression_IsbL-0200_RLatLon0.09_PT065H.grib2 2026-04-26 21:39 217K
20260426T18Z_MSC_RDPS_DewPointDepression_IsbL-0225_RLatLon0.09_PT065H.grib2 2026-04-26 21:39 265K
20260426T18Z_MSC_RDPS_DewPointDepression_IsbL-0250_RLatLon0.09_PT065H.grib2 2026-04-26 21:39 303K
20260426T18Z_MSC_RDPS_DewPointDepression_IsbL-0275_RLatLon0.09_PT065H.grib2 2026-04-26 21:39 309K
20260426T18Z_MSC_RDPS_DewPointDepression_IsbL-0300_RLatLon0.09_PT065H.grib2 2026-04-26 21:39 324K
20260426T18Z_MSC_RDPS_DewPointDepression_IsbL-0350_RLatLon0.09_PT065H.grib2 2026-04-26 21:39 326K
20260426T18Z_MSC_RDPS_DewPointDepression_IsbL-0400_RLatLon0.09_PT065H.grib2 2026-04-26 21:39 335K
20260426T18Z_MSC_RDPS_DewPointDepression_IsbL-0450_RLatLon0.09_PT065H.grib2 2026-04-26 21:39 339K
20260426T18Z_MSC_RDPS_DewPointDepression_IsbL-0500_RLatLon0.09_PT065H.grib2 2026-04-26 21:39 346K
20260426T18Z_MSC_RDPS_DewPointDepression_IsbL-0550_RLatLon0.09_PT065H.grib2 2026-04-26 21:39 359K
20260426T18Z_MSC_RDPS_DewPointDepression_IsbL-0600_RLatLon0.09_PT065H.grib2 2026-04-26 21:39 366K
20260426T18Z_MSC_RDPS_DewPointDepression_IsbL-0650_RLatLon0.09_PT065H.grib2 2026-04-26 21:39 371K
20260426T18Z_MSC_RDPS_DewPointDepression_IsbL-0700_RLatLon0.09_PT065H.grib2 2026-04-26 21:39 384K
20260426T18Z_MSC_RDPS_DewPointDepression_IsbL-0750_RLatLon0.09_PT065H.grib2 2026-04-26 21:39 406K
20260426T18Z_MSC_RDPS_DewPointDepression_IsbL-0800_RLatLon0.09_PT065H.grib2 2026-04-26 21:39 438K
20260426T18Z_MSC_RDPS_DewPointDepression_IsbL-0850_RLatLon0.09_PT065H.grib2 2026-04-26 21:39 468K
20260426T18Z_MSC_RDPS_DewPointDepression_IsbL-0875_RLatLon0.09_PT065H.grib2 2026-04-26 21:39 470K
20260426T18Z_MSC_RDPS_DewPointDepression_IsbL-0900_RLatLon0.09_PT065H.grib2 2026-04-26 21:39 460K
20260426T18Z_MSC_RDPS_DewPointDepression_IsbL-0925_RLatLon0.09_PT065H.grib2 2026-04-26 21:39 449K
20260426T18Z_MSC_RDPS_DewPointDepression_IsbL-0950_RLatLon0.09_PT065H.grib2 2026-04-26 21:39 441K
20260426T18Z_MSC_RDPS_DewPointDepression_IsbL-0970_RLatLon0.09_PT065H.grib2 2026-04-26 21:39 431K
20260426T18Z_MSC_RDPS_DewPointDepression_IsbL-0985_RLatLon0.09_PT065H.grib2 2026-04-26 21:39 426K
20260426T18Z_MSC_RDPS_DewPointDepression_IsbL-1000_RLatLon0.09_PT065H.grib2 2026-04-26 21:39 422K
20260426T18Z_MSC_RDPS_DewPointDepression_IsbL-1015_RLatLon0.09_PT065H.grib2 2026-04-26 21:39 417K
20260426T18Z_MSC_RDPS_DewPoint_AGL-2m_RLatLon0.09_PT065H.grib2 2026-04-26 21:39 311K
20260426T18Z_MSC_RDPS_DownwardLongwaveRadiationFlux-Accum_Sfc_RLatLon0.09_PT065H.grib2 2026-04-26 21:39 417K
20260426T18Z_MSC_RDPS_DownwardShortwaveRadiationFlux-Accum_NTAtm_RLatLon0.09_PT065H.grib2 2026-04-26 21:39 110K
20260426T18Z_MSC_RDPS_DownwardShortwaveRadiationFlux-Accum_Sfc_RLatLon0.09_PT065H.grib2 2026-04-26 21:39 605K
20260426T18Z_MSC_RDPS_FreezingRain-Accum1h_Sfc_RLatLon0.09_PT065H.grib2 2026-04-26 21:39 53K
20260426T18Z_MSC_RDPS_FreezingRain-Accum_Sfc_RLatLon0.09_PT065H.grib2 2026-04-26 21:39 203K
20260426T18Z_MSC_RDPS_GeopotentialHeight_IsbL-0001_RLatLon0.09_PT065H.grib2 2026-04-26 21:39 310K
20260426T18Z_MSC_RDPS_GeopotentialHeight_IsbL-0005_RLatLon0.09_PT065H.grib2 2026-04-26 21:39 337K
20260426T18Z_MSC_RDPS_GeopotentialHeight_IsbL-0010_RLatLon0.09_PT065H.grib2 2026-04-26 21:39 305K
20260426T18Z_MSC_RDPS_GeopotentialHeight_IsbL-0020_RLatLon0.09_PT065H.grib2 2026-04-26 21:39 304K
20260426T18Z_MSC_RDPS_GeopotentialHeight_IsbL-0030_RLatLon0.09_PT065H.grib2 2026-04-26 21:39 305K
20260426T18Z_MSC_RDPS_GeopotentialHeight_IsbL-0050_RLatLon0.09_PT065H.grib2 2026-04-26 21:39 308K
20260426T18Z_MSC_RDPS_GeopotentialHeight_IsbL-0100_RLatLon0.09_PT065H.grib2 2026-04-26 21:39 286K
20260426T18Z_MSC_RDPS_GeopotentialHeight_IsbL-0150_RLatLon0.09_PT065H.grib2 2026-04-26 21:39 229K
20260426T18Z_MSC_RDPS_GeopotentialHeight_IsbL-0175_RLatLon0.09_PT065H.grib2 2026-04-26 21:39 263K
20260426T18Z_MSC_RDPS_GeopotentialHeight_IsbL-0200_RLatLon0.09_PT065H.grib2 2026-04-26 21:39 266K
20260426T18Z_MSC_RDPS_GeopotentialHeight_IsbL-0225_RLatLon0.09_PT065H.grib2 2026-04-26 21:39 266K
20260426T18Z_MSC_RDPS_GeopotentialHeight_IsbL-0250_RLatLon0.09_PT065H.grib2 2026-04-26 21:39 267K
20260426T18Z_MSC_RDPS_GeopotentialHeight_IsbL-0275_RLatLon0.09_PT065H.grib2 2026-04-26 21:39 265K
20260426T18Z_MSC_RDPS_GeopotentialHeight_IsbL-0300_RLatLon0.09_PT065H.grib2 2026-04-26 21:39 266K
20260426T18Z_MSC_RDPS_GeopotentialHeight_IsbL-0350_RLatLon0.09_PT065H.grib2 2026-04-26 21:39 232K
20260426T18Z_MSC_RDPS_GeopotentialHeight_IsbL-0400_RLatLon0.09_PT065H.grib2 2026-04-26 21:39 228K
20260426T18Z_MSC_RDPS_GeopotentialHeight_IsbL-0450_RLatLon0.09_PT065H.grib2 2026-04-26 21:39 296K
20260426T18Z_MSC_RDPS_GeopotentialHeight_IsbL-0500_RLatLon0.09_PT065H.grib2 2026-04-26 21:39 291K
20260426T18Z_MSC_RDPS_GeopotentialHeight_IsbL-0550_RLatLon0.09_PT065H.grib2 2026-04-26 21:39 287K
20260426T18Z_MSC_RDPS_GeopotentialHeight_IsbL-0600_RLatLon0.09_PT065H.grib2 2026-04-26 21:39 285K
20260426T18Z_MSC_RDPS_GeopotentialHeight_IsbL-0650_RLatLon0.09_PT065H.grib2 2026-04-26 21:39 253K
20260426T18Z_MSC_RDPS_GeopotentialHeight_IsbL-0700_RLatLon0.09_PT065H.grib2 2026-04-26 21:39 251K
20260426T18Z_MSC_RDPS_GeopotentialHeight_IsbL-0750_RLatLon0.09_PT065H.grib2 2026-04-26 21:39 334K
20260426T18Z_MSC_RDPS_GeopotentialHeight_IsbL-0800_RLatLon0.09_PT065H.grib2 2026-04-26 21:39 343K
20260426T18Z_MSC_RDPS_GeopotentialHeight_IsbL-0850_RLatLon0.09_PT065H.grib2 2026-04-26 21:39 355K
20260426T18Z_MSC_RDPS_GeopotentialHeight_IsbL-0875_RLatLon0.09_PT065H.grib2 2026-04-26 21:39 357K
20260426T18Z_MSC_RDPS_GeopotentialHeight_IsbL-0900_RLatLon0.09_PT065H.grib2 2026-04-26 21:39 363K
20260426T18Z_MSC_RDPS_GeopotentialHeight_IsbL-0925_RLatLon0.09_PT065H.grib2 2026-04-26 21:39 366K
20260426T18Z_MSC_RDPS_GeopotentialHeight_IsbL-0950_RLatLon0.09_PT065H.grib2 2026-04-26 21:39 369K
20260426T18Z_MSC_RDPS_GeopotentialHeight_IsbL-0970_RLatLon0.09_PT065H.grib2 2026-04-26 21:39 374K
20260426T18Z_MSC_RDPS_GeopotentialHeight_IsbL-0985_RLatLon0.09_PT065H.grib2 2026-04-26 21:39 383K
20260426T18Z_MSC_RDPS_GeopotentialHeight_IsbL-1000_RLatLon0.09_PT065H.grib2 2026-04-26 21:39 394K
20260426T18Z_MSC_RDPS_GeopotentialHeight_IsbL-1015_RLatLon0.09_PT065H.grib2 2026-04-26 21:39 408K
20260426T18Z_MSC_RDPS_Humidex_Sfc_RLatLon0.09_PT065H.grib2 2026-04-26 21:39 2.4M
20260426T18Z_MSC_RDPS_IcePellets-Accum1h_Sfc_RLatLon0.09_PT065H.grib2 2026-04-26 21:39 7.4K
20260426T18Z_MSC_RDPS_IcePellets-Accum_Sfc_RLatLon0.09_PT065H.grib2 2026-04-26 21:39 37K
20260426T18Z_MSC_RDPS_KIndex_Sfc_RLatLon0.09_PT065H.grib2 2026-04-26 21:39 2.5M
20260426T18Z_MSC_RDPS_LatentHeatNetFlux_Sfc_RLatLon0.09_PT065H.grib2 2026-04-26 21:39 408K
20260426T18Z_MSC_RDPS_LiftedIndex-MU-VT_IsbL-0500_RLatLon0.09_PT065H.grib2 2026-04-26 21:39 2.4M
20260426T18Z_MSC_RDPS_NetLongwaveRadiationFlux-Accum_Sfc_RLatLon0.09_PT065H.grib2 2026-04-26 21:39 594K
20260426T18Z_MSC_RDPS_NetShortwaveRadiationFlux-Accum_Sfc_RLatLon0.09_PT065H.grib2 2026-04-26 21:39 608K
20260426T18Z_MSC_RDPS_PlanetaryBoundaryLayerHeight_Sfc_RLatLon0.09_PT065H.grib2 2026-04-26 21:39 1.1M
20260426T18Z_MSC_RDPS_Precip-Accum1h_Sfc_RLatLon0.09_PT065H.grib2 2026-04-26 21:39 1.2M
20260426T18Z_MSC_RDPS_Precip-Accum_Sfc_RLatLon0.09_PT065H.grib2 2026-04-26 21:39 2.2M
20260426T18Z_MSC_RDPS_PrecipRate_Sfc_RLatLon0.09_PT065H.grib2 2026-04-26 21:39 170K
20260426T18Z_MSC_RDPS_PrecipType-Instant_Sfc_RLatLon0.09_PT065H.grib2 2026-04-26 21:39 549K
20260426T18Z_MSC_RDPS_Pressure-Trend3h_Sfc_RLatLon0.09_PT065H.grib2 2026-04-26 21:39 1.2M
20260426T18Z_MSC_RDPS_Pressure_MSL_RLatLon0.09_PT065H.grib2 2026-04-26 21:39 293K
20260426T18Z_MSC_RDPS_Pressure_PVU-1.5_RLatLon0.09_PT065H.grib2 2026-04-26 21:39 2.3M
20260426T18Z_MSC_RDPS_Pressure_PVU-1_RLatLon0.09_PT065H.grib2 2026-04-26 21:39 2.4M
20260426T18Z_MSC_RDPS_Pressure_PVU-2_RLatLon0.09_PT065H.grib2 2026-04-26 21:39 2.3M
20260426T18Z_MSC_RDPS_Pressure_Sfc_RLatLon0.09_PT065H.grib2 2026-04-26 21:39 501K
20260426T18Z_MSC_RDPS_RadiativeTemp_Sfc_RLatLon0.09_PT065H.grib2 2026-04-26 21:39 302K
20260426T18Z_MSC_RDPS_Rain-Accum1h_Sfc_RLatLon0.09_PT065H.grib2 2026-04-26 21:39 583K
20260426T18Z_MSC_RDPS_Rain-Accum_Sfc_RLatLon0.09_PT065H.grib2 2026-04-26 21:39 1.7M
20260426T18Z_MSC_RDPS_RelativeHumidity_AGL-2m_RLatLon0.09_PT065H.grib2 2026-04-26 21:39 1.0M
20260426T18Z_MSC_RDPS_RelativeHumidity_IsbL-0010_RLatLon0.09_PT065H.grib2 2026-04-26 21:39 622K
20260426T18Z_MSC_RDPS_RelativeHumidity_IsbL-0020_RLatLon0.09_PT065H.grib2 2026-04-26 21:39 646K
20260426T18Z_MSC_RDPS_RelativeHumidity_IsbL-0030_RLatLon0.09_PT065H.grib2 2026-04-26 21:39 540K
20260426T18Z_MSC_RDPS_RelativeHumidity_IsbL-0050_RLatLon0.09_PT065H.grib2 2026-04-26 21:39 331K
20260426T18Z_MSC_RDPS_RelativeHumidity_IsbL-0100_RLatLon0.09_PT065H.grib2 2026-04-26 21:39 282K
20260426T18Z_MSC_RDPS_RelativeHumidity_IsbL-0150_RLatLon0.09_PT065H.grib2 2026-04-26 21:39 416K
20260426T18Z_MSC_RDPS_RelativeHumidity_IsbL-0175_RLatLon0.09_PT065H.grib2 2026-04-26 21:39 487K
20260426T18Z_MSC_RDPS_RelativeHumidity_IsbL-0200_RLatLon0.09_PT065H.grib2 2026-04-26 21:39 561K
20260426T18Z_MSC_RDPS_RelativeHumidity_IsbL-0225_RLatLon0.09_PT065H.grib2 2026-04-26 21:39 625K
20260426T18Z_MSC_RDPS_RelativeHumidity_IsbL-0250_RLatLon0.09_PT065H.grib2 2026-04-26 21:39 694K
20260426T18Z_MSC_RDPS_RelativeHumidity_IsbL-0275_RLatLon0.09_PT065H.grib2 2026-04-26 21:39 722K
20260426T18Z_MSC_RDPS_RelativeHumidity_IsbL-0300_RLatLon0.09_PT065H.grib2 2026-04-26 21:39 760K
20260426T18Z_MSC_RDPS_RelativeHumidity_IsbL-0350_RLatLon0.09_PT065H.grib2 2026-04-26 21:39 776K
20260426T18Z_MSC_RDPS_RelativeHumidity_IsbL-0400_RLatLon0.09_PT065H.grib2 2026-04-26 21:39 789K
20260426T18Z_MSC_RDPS_RelativeHumidity_IsbL-0450_RLatLon0.09_PT065H.grib2 2026-04-26 21:39 788K
20260426T18Z_MSC_RDPS_RelativeHumidity_IsbL-0500_RLatLon0.09_PT065H.grib2 2026-04-26 21:39 792K
20260426T18Z_MSC_RDPS_RelativeHumidity_IsbL-0550_RLatLon0.09_PT065H.grib2 2026-04-26 21:39 809K
20260426T18Z_MSC_RDPS_RelativeHumidity_IsbL-0600_RLatLon0.09_PT065H.grib2 2026-04-26 21:39 825K
20260426T18Z_MSC_RDPS_RelativeHumidity_IsbL-0650_RLatLon0.09_PT065H.grib2 2026-04-26 21:39 835K
20260426T18Z_MSC_RDPS_RelativeHumidity_IsbL-0700_RLatLon0.09_PT065H.grib2 2026-04-26 21:39 861K
20260426T18Z_MSC_RDPS_RelativeHumidity_IsbL-0750_RLatLon0.09_PT065H.grib2 2026-04-26 21:39 906K
20260426T18Z_MSC_RDPS_RelativeHumidity_IsbL-0800_RLatLon0.09_PT065H.grib2 2026-04-26 21:39 972K
20260426T18Z_MSC_RDPS_RelativeHumidity_IsbL-0850_RLatLon0.09_PT065H.grib2 2026-04-26 21:39 1.0M
20260426T18Z_MSC_RDPS_RelativeHumidity_IsbL-0875_RLatLon0.09_PT065H.grib2 2026-04-26 21:39 1.1M
20260426T18Z_MSC_RDPS_RelativeHumidity_IsbL-0900_RLatLon0.09_PT065H.grib2 2026-04-26 21:39 1.1M
20260426T18Z_MSC_RDPS_RelativeHumidity_IsbL-0925_RLatLon0.09_PT065H.grib2 2026-04-26 21:39 1.1M
20260426T18Z_MSC_RDPS_RelativeHumidity_IsbL-0950_RLatLon0.09_PT065H.grib2 2026-04-26 21:39 1.1M
20260426T18Z_MSC_RDPS_RelativeHumidity_IsbL-0970_RLatLon0.09_PT065H.grib2 2026-04-26 21:39 1.0M
20260426T18Z_MSC_RDPS_RelativeHumidity_IsbL-0985_RLatLon0.09_PT065H.grib2 2026-04-26 21:39 1.0M
20260426T18Z_MSC_RDPS_RelativeHumidity_IsbL-1000_RLatLon0.09_PT065H.grib2 2026-04-26 21:39 1.0M
20260426T18Z_MSC_RDPS_RelativeHumidity_IsbL-1015_RLatLon0.09_PT065H.grib2 2026-04-26 21:39 1.0M
20260426T18Z_MSC_RDPS_Runoff-Accum_Sfc_RLatLon0.09_PT065H.grib2 2026-04-26 21:39 57K
20260426T18Z_MSC_RDPS_SWEATIndex_Sfc_RLatLon0.09_PT065H.grib2 2026-04-26 21:39 2.4M
20260426T18Z_MSC_RDPS_SeeingIndex_EAtm_RLatLon0.09_PT065H.grib2 2026-04-26 21:39 1.0M
20260426T18Z_MSC_RDPS_SensibleHeatNetFlux_Sfc_RLatLon0.09_PT065H.grib2 2026-04-26 21:39 298K
20260426T18Z_MSC_RDPS_ShowalterIndex_IsbL-0500_RLatLon0.09_PT065H.grib2 2026-04-26 21:39 2.6M
20260426T18Z_MSC_RDPS_SkyTransparencyIndex_EAtm_RLatLon0.09_PT065H.grib2 2026-04-26 21:39 699K
20260426T18Z_MSC_RDPS_Snow-Accum1h_Sfc_RLatLon0.09_PT065H.grib2 2026-04-26 21:39 550K
20260426T18Z_MSC_RDPS_Snow-Accum_Sfc_RLatLon0.09_PT065H.grib2 2026-04-26 21:39 844K
20260426T18Z_MSC_RDPS_SnowDensity_Sfc_RLatLon0.09_PT065H.grib2 2026-04-26 21:39 187K
20260426T18Z_MSC_RDPS_SnowDepth_Sfc_RLatLon0.09_PT065H.grib2 2026-04-26 21:39 705K
20260426T18Z_MSC_RDPS_SoilTemp_DBS-0to10cm_RLatLon0.09_PT065H.grib2 2026-04-26 21:39 238K
20260426T18Z_MSC_RDPS_SoilTemp_Sfc_RLatLon0.09_PT065H.grib2 2026-04-26 21:39 284K
20260426T18Z_MSC_RDPS_SoilVolumetricIceContent_Sfc_RLatLon0.09_PT065H.grib2 2026-04-26 21:39 167K
20260426T18Z_MSC_RDPS_SoilVolumetricWaterContent_DBS-0to10cm_RLatLon0.09_PT065H.grib2 2026-04-26 21:39 265K
20260426T18Z_MSC_RDPS_SoilVolumetricWaterContent_DBS-0to1cm_RLatLon0.09_PT065H.grib2 2026-04-26 21:39 341K
20260426T18Z_MSC_RDPS_SpecificHumidity_AGL-120m_RLatLon0.09_PT065H.grib2 2026-04-26 21:39 484K
20260426T18Z_MSC_RDPS_SpecificHumidity_AGL-2m_RLatLon0.09_PT065H.grib2 2026-04-26 21:39 650K
20260426T18Z_MSC_RDPS_SpecificHumidity_AGL-40m_RLatLon0.09_PT065H.grib2 2026-04-26 21:39 490K
20260426T18Z_MSC_RDPS_SpecificHumidity_AGL-80m_RLatLon0.09_PT065H.grib2 2026-04-26 21:39 486K
20260426T18Z_MSC_RDPS_SpecificHumidity_IsbL-0001_RLatLon0.09_PT065H.grib2 2026-04-26 21:39 336K
20260426T18Z_MSC_RDPS_SpecificHumidity_IsbL-0005_RLatLon0.09_PT065H.grib2 2026-04-26 21:39 351K
20260426T18Z_MSC_RDPS_SpecificHumidity_IsbL-0010_RLatLon0.09_PT065H.grib2 2026-04-26 21:39 393K
20260426T18Z_MSC_RDPS_SpecificHumidity_IsbL-0020_RLatLon0.09_PT065H.grib2 2026-04-26 21:39 380K
20260426T18Z_MSC_RDPS_SpecificHumidity_IsbL-0030_RLatLon0.09_PT065H.grib2 2026-04-26 21:39 439K
20260426T18Z_MSC_RDPS_SpecificHumidity_IsbL-0050_RLatLon0.09_PT065H.grib2 2026-04-26 21:39 480K
20260426T18Z_MSC_RDPS_SpecificHumidity_IsbL-0100_RLatLon0.09_PT065H.grib2 2026-04-26 21:39 422K
20260426T18Z_MSC_RDPS_SpecificHumidity_IsbL-0150_RLatLon0.09_PT065H.grib2 2026-04-26 21:39 480K
20260426T18Z_MSC_RDPS_SpecificHumidity_IsbL-0175_RLatLon0.09_PT065H.grib2 2026-04-26 21:39 544K
20260426T18Z_MSC_RDPS_SpecificHumidity_IsbL-0200_RLatLon0.09_PT065H.grib2 2026-04-26 21:39 457K
20260426T18Z_MSC_RDPS_SpecificHumidity_IsbL-0225_RLatLon0.09_PT065H.grib2 2026-04-26 21:39 457K
20260426T18Z_MSC_RDPS_SpecificHumidity_IsbL-0250_RLatLon0.09_PT065H.grib2 2026-04-26 21:39 516K
20260426T18Z_MSC_RDPS_SpecificHumidity_IsbL-0275_RLatLon0.09_PT065H.grib2 2026-04-26 21:39 474K
20260426T18Z_MSC_RDPS_SpecificHumidity_IsbL-0300_RLatLon0.09_PT065H.grib2 2026-04-26 21:39 443K
20260426T18Z_MSC_RDPS_SpecificHumidity_IsbL-0350_RLatLon0.09_PT065H.grib2 2026-04-26 21:39 557K
20260426T18Z_MSC_RDPS_SpecificHumidity_IsbL-0400_RLatLon0.09_PT065H.grib2 2026-04-26 21:39 512K
20260426T18Z_MSC_RDPS_SpecificHumidity_IsbL-0450_RLatLon0.09_PT065H.grib2 2026-04-26 21:39 560K
20260426T18Z_MSC_RDPS_SpecificHumidity_IsbL-0500_RLatLon0.09_PT065H.grib2 2026-04-26 21:39 496K
20260426T18Z_MSC_RDPS_SpecificHumidity_IsbL-0550_RLatLon0.09_PT065H.grib2 2026-04-26 21:39 570K
20260426T18Z_MSC_RDPS_SpecificHumidity_IsbL-0600_RLatLon0.09_PT065H.grib2 2026-04-26 21:39 621K
20260426T18Z_MSC_RDPS_SpecificHumidity_IsbL-0650_RLatLon0.09_PT065H.grib2 2026-04-26 21:39 539K
20260426T18Z_MSC_RDPS_SpecificHumidity_IsbL-0700_RLatLon0.09_PT065H.grib2 2026-04-26 21:39 582K
20260426T18Z_MSC_RDPS_SpecificHumidity_IsbL-0750_RLatLon0.09_PT065H.grib2 2026-04-26 21:39 636K
20260426T18Z_MSC_RDPS_SpecificHumidity_IsbL-0800_RLatLon0.09_PT065H.grib2 2026-04-26 21:39 715K
20260426T18Z_MSC_RDPS_SpecificHumidity_IsbL-0850_RLatLon0.09_PT065H.grib2 2026-04-26 21:39 794K
20260426T18Z_MSC_RDPS_SpecificHumidity_IsbL-0875_RLatLon0.09_PT065H.grib2 2026-04-26 21:39 821K
20260426T18Z_MSC_RDPS_SpecificHumidity_IsbL-0900_RLatLon0.09_PT065H.grib2 2026-04-26 21:39 833K
20260426T18Z_MSC_RDPS_SpecificHumidity_IsbL-0925_RLatLon0.09_PT065H.grib2 2026-04-26 21:39 834K
20260426T18Z_MSC_RDPS_SpecificHumidity_IsbL-0950_RLatLon0.09_PT065H.grib2 2026-04-26 21:39 832K
20260426T18Z_MSC_RDPS_SpecificHumidity_IsbL-0970_RLatLon0.09_PT065H.grib2 2026-04-26 21:39 822K
20260426T18Z_MSC_RDPS_SpecificHumidity_IsbL-0985_RLatLon0.09_PT065H.grib2 2026-04-26 21:39 814K
20260426T18Z_MSC_RDPS_SpecificHumidity_IsbL-1000_RLatLon0.09_PT065H.grib2 2026-04-26 21:39 668K
20260426T18Z_MSC_RDPS_SpecificHumidity_IsbL-1015_RLatLon0.09_PT065H.grib2 2026-04-26 21:39 662K
20260426T18Z_MSC_RDPS_SpecificHumidity_Sfc_RLatLon0.09_PT065H.grib2 2026-04-26 21:39 289K
20260426T18Z_MSC_RDPS_StormRelativeHelicity_EtaL-10000_RLatLon0.09_PT065H.grib2 2026-04-26 21:39 1.1M
20260426T18Z_MSC_RDPS_StormSeverityIndex_EtaL-10000_RLatLon0.09_PT065H.grib2 2026-04-26 21:39 1.1M
20260426T18Z_MSC_RDPS_Thickness_IsbL-0850to0700_RLatLon0.09_PT065H.grib2 2026-04-26 21:39 176K
20260426T18Z_MSC_RDPS_Thickness_IsbL-1000to0500_RLatLon0.09_PT065H.grib2 2026-04-26 21:39 199K
20260426T18Z_MSC_RDPS_Thickness_IsbL-1000to0850_RLatLon0.09_PT065H.grib2 2026-04-26 21:39 261K
20260426T18Z_MSC_RDPS_TotalCloudCover_Sfc_RLatLon0.09_PT065H.grib2 2026-04-26 21:39 667K
20260426T18Z_MSC_RDPS_TotalTotalsIndex_Sfc_RLatLon0.09_PT065H.grib2 2026-04-26 21:39 2.4M
20260426T18Z_MSC_RDPS_UVIndex-ClearSky_Sfc_RLatLon0.09_PT065H.grib2 2026-04-26 21:39 115K
20260426T18Z_MSC_RDPS_UVIndex_Sfc_RLatLon0.09_PT065H.grib2 2026-04-26 21:39 257K
20260426T18Z_MSC_RDPS_UpwardLongwaveRadiationFlux_NTAtm_RLatLon0.09_PT065H.grib2 2026-04-26 21:39 488K
20260426T18Z_MSC_RDPS_UpwardShortwaveRadiationFlux_NTAtm_RLatLon0.09_PT065H.grib2 2026-04-26 21:39 244K
20260426T18Z_MSC_RDPS_VerticalVelocity_IsbL-0250_RLatLon0.09_PT065H.grib2 2026-04-26 21:39 436K
20260426T18Z_MSC_RDPS_VerticalVelocity_IsbL-0500_RLatLon0.09_PT065H.grib2 2026-04-26 21:39 543K
20260426T18Z_MSC_RDPS_VerticalVelocity_IsbL-0700_RLatLon0.09_PT065H.grib2 2026-04-26 21:39 585K
20260426T18Z_MSC_RDPS_VerticalVelocity_IsbL-0850_RLatLon0.09_PT065H.grib2 2026-04-26 21:39 684K
20260426T18Z_MSC_RDPS_VerticalWindShear_EtaL-6500_RLatLon0.09_PT065H.grib2 2026-04-26 21:39 1.2M
20260426T18Z_MSC_RDPS_WindChill_Sfc_RLatLon0.09_PT065H.grib2 2026-04-26 21:39 1.2M
20260426T18Z_MSC_RDPS_WindDir_AGL-10m_RLatLon0.09_PT065H.grib2 2026-04-26 21:39 1.0M
20260426T18Z_MSC_RDPS_WindDir_AGL-120m_RLatLon0.09_PT065H.grib2 2026-04-26 21:39 613K
20260426T18Z_MSC_RDPS_WindDir_AGL-40m_RLatLon0.09_PT065H.grib2 2026-04-26 21:39 645K
20260426T18Z_MSC_RDPS_WindDir_AGL-80m_RLatLon0.09_PT065H.grib2 2026-04-26 21:39 625K
20260426T18Z_MSC_RDPS_WindDir_IsbL-0001_RLatLon0.09_PT065H.grib2 2026-04-26 21:39 312K
20260426T18Z_MSC_RDPS_WindDir_IsbL-0005_RLatLon0.09_PT065H.grib2 2026-04-26 21:39 369K
20260426T18Z_MSC_RDPS_WindDir_IsbL-0010_RLatLon0.09_PT065H.grib2 2026-04-26 21:39 377K
20260426T18Z_MSC_RDPS_WindDir_IsbL-0020_RLatLon0.09_PT065H.grib2 2026-04-26 21:39 400K
20260426T18Z_MSC_RDPS_WindDir_IsbL-0030_RLatLon0.09_PT065H.grib2 2026-04-26 21:39 420K
20260426T18Z_MSC_RDPS_WindDir_IsbL-0050_RLatLon0.09_PT065H.grib2 2026-04-26 21:39 428K
20260426T18Z_MSC_RDPS_WindDir_IsbL-0100_RLatLon0.09_PT065H.grib2 2026-04-26 21:39 420K
20260426T18Z_MSC_RDPS_WindDir_IsbL-0150_RLatLon0.09_PT065H.grib2 2026-04-26 21:39 413K
20260426T18Z_MSC_RDPS_WindDir_IsbL-0175_RLatLon0.09_PT065H.grib2 2026-04-26 21:39 433K
20260426T18Z_MSC_RDPS_WindDir_IsbL-0200_RLatLon0.09_PT065H.grib2 2026-04-26 21:39 446K
20260426T18Z_MSC_RDPS_WindDir_IsbL-0225_RLatLon0.09_PT065H.grib2 2026-04-26 21:39 451K
20260426T18Z_MSC_RDPS_WindDir_IsbL-0250_RLatLon0.09_PT065H.grib2 2026-04-26 21:39 454K
20260426T18Z_MSC_RDPS_WindDir_IsbL-0275_RLatLon0.09_PT065H.grib2 2026-04-26 21:39 476K
20260426T18Z_MSC_RDPS_WindDir_IsbL-0300_RLatLon0.09_PT065H.grib2 2026-04-26 21:39 467K
20260426T18Z_MSC_RDPS_WindDir_IsbL-0350_RLatLon0.09_PT065H.grib2 2026-04-26 21:39 484K
20260426T18Z_MSC_RDPS_WindDir_IsbL-0400_RLatLon0.09_PT065H.grib2 2026-04-26 21:39 507K
20260426T18Z_MSC_RDPS_WindDir_IsbL-0450_RLatLon0.09_PT065H.grib2 2026-04-26 21:39 520K
20260426T18Z_MSC_RDPS_WindDir_IsbL-0500_RLatLon0.09_PT065H.grib2 2026-04-26 21:39 533K
20260426T18Z_MSC_RDPS_WindDir_IsbL-0550_RLatLon0.09_PT065H.grib2 2026-04-26 21:39 550K
20260426T18Z_MSC_RDPS_WindDir_IsbL-0600_RLatLon0.09_PT065H.grib2 2026-04-26 21:39 578K
20260426T18Z_MSC_RDPS_WindDir_IsbL-0650_RLatLon0.09_PT065H.grib2 2026-04-26 21:39 621K
20260426T18Z_MSC_RDPS_WindDir_IsbL-0700_RLatLon0.09_PT065H.grib2 2026-04-26 21:39 662K
20260426T18Z_MSC_RDPS_WindDir_IsbL-0750_RLatLon0.09_PT065H.grib2 2026-04-26 21:39 711K
20260426T18Z_MSC_RDPS_WindDir_IsbL-0800_RLatLon0.09_PT065H.grib2 2026-04-26 21:39 781K
20260426T18Z_MSC_RDPS_WindDir_IsbL-0850_RLatLon0.09_PT065H.grib2 2026-04-26 21:39 858K
20260426T18Z_MSC_RDPS_WindDir_IsbL-0875_RLatLon0.09_PT065H.grib2 2026-04-26 21:39 889K
20260426T18Z_MSC_RDPS_WindDir_IsbL-0900_RLatLon0.09_PT065H.grib2 2026-04-26 21:39 907K
20260426T18Z_MSC_RDPS_WindDir_IsbL-0925_RLatLon0.09_PT065H.grib2 2026-04-26 21:39 917K
20260426T18Z_MSC_RDPS_WindDir_IsbL-0950_RLatLon0.09_PT065H.grib2 2026-04-26 21:39 920K
20260426T18Z_MSC_RDPS_WindDir_IsbL-0970_RLatLon0.09_PT065H.grib2 2026-04-26 21:39 930K
20260426T18Z_MSC_RDPS_WindDir_IsbL-0985_RLatLon0.09_PT065H.grib2 2026-04-26 21:39 938K
20260426T18Z_MSC_RDPS_WindDir_IsbL-1000_RLatLon0.09_PT065H.grib2 2026-04-26 21:39 954K
20260426T18Z_MSC_RDPS_WindDir_IsbL-1015_RLatLon0.09_PT065H.grib2 2026-04-26 21:39 972K
20260426T18Z_MSC_RDPS_WindGust-Max_AGL-10m_RLatLon0.09_PT065H.grib2 2026-04-26 21:39 1.0M
20260426T18Z_MSC_RDPS_WindGust-Min_AGL-10m_RLatLon0.09_PT065H.grib2 2026-04-26 21:39 969K
20260426T18Z_MSC_RDPS_WindGust_AGL-10m_RLatLon0.09_PT065H.grib2 2026-04-26 21:39 1.0M
20260426T18Z_MSC_RDPS_WindSpeed_AGL-10m_RLatLon0.09_PT065H.grib2 2026-04-26 21:39 841K
20260426T18Z_MSC_RDPS_WindSpeed_AGL-120m_RLatLon0.09_PT065H.grib2 2026-04-26 21:39 552K
20260426T18Z_MSC_RDPS_WindSpeed_AGL-40m_RLatLon0.09_PT065H.grib2 2026-04-26 21:39 543K
20260426T18Z_MSC_RDPS_WindSpeed_AGL-80m_RLatLon0.09_PT065H.grib2 2026-04-26 21:39 553K
20260426T18Z_MSC_RDPS_WindSpeed_IsbL-0001_RLatLon0.09_PT065H.grib2 2026-04-26 21:39 335K
20260426T18Z_MSC_RDPS_WindSpeed_IsbL-0005_RLatLon0.09_PT065H.grib2 2026-04-26 21:39 297K
20260426T18Z_MSC_RDPS_WindSpeed_IsbL-0010_RLatLon0.09_PT065H.grib2 2026-04-26 21:39 309K
20260426T18Z_MSC_RDPS_WindSpeed_IsbL-0020_RLatLon0.09_PT065H.grib2 2026-04-26 21:39 326K
20260426T18Z_MSC_RDPS_WindSpeed_IsbL-0030_RLatLon0.09_PT065H.grib2 2026-04-26 21:39 322K
20260426T18Z_MSC_RDPS_WindSpeed_IsbL-0050_RLatLon0.09_PT065H.grib2 2026-04-26 21:39 463K
20260426T18Z_MSC_RDPS_WindSpeed_IsbL-0100_RLatLon0.09_PT065H.grib2 2026-04-26 21:39 488K
20260426T18Z_MSC_RDPS_WindSpeed_IsbL-0150_RLatLon0.09_PT065H.grib2 2026-04-26 21:39 386K
20260426T18Z_MSC_RDPS_WindSpeed_IsbL-0175_RLatLon0.09_PT065H.grib2 2026-04-26 21:39 435K
20260426T18Z_MSC_RDPS_WindSpeed_IsbL-0200_RLatLon0.09_PT065H.grib2 2026-04-26 21:39 453K
20260426T18Z_MSC_RDPS_WindSpeed_IsbL-0225_RLatLon0.09_PT065H.grib2 2026-04-26 21:39 457K
20260426T18Z_MSC_RDPS_WindSpeed_IsbL-0250_RLatLon0.09_PT065H.grib2 2026-04-26 21:39 461K
20260426T18Z_MSC_RDPS_WindSpeed_IsbL-0275_RLatLon0.09_PT065H.grib2 2026-04-26 21:39 479K
20260426T18Z_MSC_RDPS_WindSpeed_IsbL-0300_RLatLon0.09_PT065H.grib2 2026-04-26 21:39 475K
20260426T18Z_MSC_RDPS_WindSpeed_IsbL-0350_RLatLon0.09_PT065H.grib2 2026-04-26 21:39 485K
20260426T18Z_MSC_RDPS_WindSpeed_IsbL-0400_RLatLon0.09_PT065H.grib2 2026-04-26 21:39 466K
20260426T18Z_MSC_RDPS_WindSpeed_IsbL-0450_RLatLon0.09_PT065H.grib2 2026-04-26 21:39 582K
20260426T18Z_MSC_RDPS_WindSpeed_IsbL-0500_RLatLon0.09_PT065H.grib2 2026-04-26 21:39 581K
20260426T18Z_MSC_RDPS_WindSpeed_IsbL-0550_RLatLon0.09_PT065H.grib2 2026-04-26 21:39 580K
20260426T18Z_MSC_RDPS_WindSpeed_IsbL-0600_RLatLon0.09_PT065H.grib2 2026-04-26 21:39 587K
20260426T18Z_MSC_RDPS_WindSpeed_IsbL-0650_RLatLon0.09_PT065H.grib2 2026-04-26 21:39 605K
20260426T18Z_MSC_RDPS_WindSpeed_IsbL-0700_RLatLon0.09_PT065H.grib2 2026-04-26 21:39 628K
20260426T18Z_MSC_RDPS_WindSpeed_IsbL-0750_RLatLon0.09_PT065H.grib2 2026-04-26 21:39 656K
20260426T18Z_MSC_RDPS_WindSpeed_IsbL-0800_RLatLon0.09_PT065H.grib2 2026-04-26 21:39 748K
20260426T18Z_MSC_RDPS_WindSpeed_IsbL-0850_RLatLon0.09_PT065H.grib2 2026-04-26 21:39 810K
20260426T18Z_MSC_RDPS_WindSpeed_IsbL-0875_RLatLon0.09_PT065H.grib2 2026-04-26 21:39 834K
20260426T18Z_MSC_RDPS_WindSpeed_IsbL-0900_RLatLon0.09_PT065H.grib2 2026-04-26 21:39 850K
20260426T18Z_MSC_RDPS_WindSpeed_IsbL-0925_RLatLon0.09_PT065H.grib2 2026-04-26 21:39 860K
20260426T18Z_MSC_RDPS_WindSpeed_IsbL-0950_RLatLon0.09_PT065H.grib2 2026-04-26 21:39 861K
20260426T18Z_MSC_RDPS_WindSpeed_IsbL-0970_RLatLon0.09_PT065H.grib2 2026-04-26 21:39 860K
20260426T18Z_MSC_RDPS_WindSpeed_IsbL-0985_RLatLon0.09_PT065H.grib2 2026-04-26 21:39 854K
20260426T18Z_MSC_RDPS_WindSpeed_IsbL-1000_RLatLon0.09_PT065H.grib2 2026-04-26 21:39 849K
20260426T18Z_MSC_RDPS_WindSpeed_IsbL-1015_RLatLon0.09_PT065H.grib2 2026-04-26 21:39 840K
20260426T18Z_MSC_RDPS_WindU_AGL-10m_RLatLon0.09_PT065H.grib2 2026-04-26 21:39 432K
20260426T18Z_MSC_RDPS_WindU_AGL-120m_RLatLon0.09_PT065H.grib2 2026-04-26 21:39 420K
20260426T18Z_MSC_RDPS_WindU_AGL-40m_RLatLon0.09_PT065H.grib2 2026-04-26 21:39 423K
20260426T18Z_MSC_RDPS_WindU_AGL-80m_RLatLon0.09_PT065H.grib2 2026-04-26 21:39 421K
20260426T18Z_MSC_RDPS_WindU_IsbL-0001_RLatLon0.09_PT065H.grib2 2026-04-26 21:39 295K
20260426T18Z_MSC_RDPS_WindU_IsbL-0005_RLatLon0.09_PT065H.grib2 2026-04-26 21:39 289K
20260426T18Z_MSC_RDPS_WindU_IsbL-0010_RLatLon0.09_PT065H.grib2 2026-04-26 21:39 301K
20260426T18Z_MSC_RDPS_WindU_IsbL-0020_RLatLon0.09_PT065H.grib2 2026-04-26 21:39 317K
20260426T18Z_MSC_RDPS_WindU_IsbL-0030_RLatLon0.09_PT065H.grib2 2026-04-26 21:39 315K
20260426T18Z_MSC_RDPS_WindU_IsbL-0050_RLatLon0.09_PT065H.grib2 2026-04-26 21:39 351K
20260426T18Z_MSC_RDPS_WindU_IsbL-0100_RLatLon0.09_PT065H.grib2 2026-04-26 21:39 442K
20260426T18Z_MSC_RDPS_WindU_IsbL-0150_RLatLon0.09_PT065H.grib2 2026-04-26 21:39 403K
20260426T18Z_MSC_RDPS_WindU_IsbL-0175_RLatLon0.09_PT065H.grib2 2026-04-26 21:39 427K
20260426T18Z_MSC_RDPS_WindU_IsbL-0200_RLatLon0.09_PT065H.grib2 2026-04-26 21:39 443K
20260426T18Z_MSC_RDPS_WindU_IsbL-0225_RLatLon0.09_PT065H.grib2 2026-04-26 21:39 448K
20260426T18Z_MSC_RDPS_WindU_IsbL-0250_RLatLon0.09_PT065H.grib2 2026-04-26 21:39 350K
20260426T18Z_MSC_RDPS_WindU_IsbL-0275_RLatLon0.09_PT065H.grib2 2026-04-26 21:39 366K
20260426T18Z_MSC_RDPS_WindU_IsbL-0300_RLatLon0.09_PT065H.grib2 2026-04-26 21:39 360K
20260426T18Z_MSC_RDPS_WindU_IsbL-0350_RLatLon0.09_PT065H.grib2 2026-04-26 21:39 471K
20260426T18Z_MSC_RDPS_WindU_IsbL-0400_RLatLon0.09_PT065H.grib2 2026-04-26 21:39 469K
20260426T18Z_MSC_RDPS_WindU_IsbL-0450_RLatLon0.09_PT065H.grib2 2026-04-26 21:39 467K
20260426T18Z_MSC_RDPS_WindU_IsbL-0500_RLatLon0.09_PT065H.grib2 2026-04-26 21:39 466K
20260426T18Z_MSC_RDPS_WindU_IsbL-0550_RLatLon0.09_PT065H.grib2 2026-04-26 21:39 466K
20260426T18Z_MSC_RDPS_WindU_IsbL-0600_RLatLon0.09_PT065H.grib2 2026-04-26 21:39 456K
20260426T18Z_MSC_RDPS_WindU_IsbL-0650_RLatLon0.09_PT065H.grib2 2026-04-26 21:39 474K
20260426T18Z_MSC_RDPS_WindU_IsbL-0700_RLatLon0.09_PT065H.grib2 2026-04-26 21:39 619K
20260426T18Z_MSC_RDPS_WindU_IsbL-0750_RLatLon0.09_PT065H.grib2 2026-04-26 21:39 522K
20260426T18Z_MSC_RDPS_WindU_IsbL-0800_RLatLon0.09_PT065H.grib2 2026-04-26 21:39 565K
20260426T18Z_MSC_RDPS_WindU_IsbL-0850_RLatLon0.09_PT065H.grib2 2026-04-26 21:39 620K
20260426T18Z_MSC_RDPS_WindU_IsbL-0875_RLatLon0.09_PT065H.grib2 2026-04-26 21:39 641K
20260426T18Z_MSC_RDPS_WindU_IsbL-0900_RLatLon0.09_PT065H.grib2 2026-04-26 21:39 660K
20260426T18Z_MSC_RDPS_WindU_IsbL-0925_RLatLon0.09_PT065H.grib2 2026-04-26 21:39 658K
20260426T18Z_MSC_RDPS_WindU_IsbL-0950_RLatLon0.09_PT065H.grib2 2026-04-26 21:39 655K
20260426T18Z_MSC_RDPS_WindU_IsbL-0970_RLatLon0.09_PT065H.grib2 2026-04-26 21:39 654K
20260426T18Z_MSC_RDPS_WindU_IsbL-0985_RLatLon0.09_PT065H.grib2 2026-04-26 21:39 650K
20260426T18Z_MSC_RDPS_WindU_IsbL-1000_RLatLon0.09_PT065H.grib2 2026-04-26 21:39 786K
20260426T18Z_MSC_RDPS_WindU_IsbL-1015_RLatLon0.09_PT065H.grib2 2026-04-26 21:39 780K
20260426T18Z_MSC_RDPS_WindV_AGL-10m_RLatLon0.09_PT065H.grib2 2026-04-26 21:39 432K
20260426T18Z_MSC_RDPS_WindV_AGL-120m_RLatLon0.09_PT065H.grib2 2026-04-26 21:39 536K
20260426T18Z_MSC_RDPS_WindV_AGL-40m_RLatLon0.09_PT065H.grib2 2026-04-26 21:39 538K
20260426T18Z_MSC_RDPS_WindV_AGL-80m_RLatLon0.09_PT065H.grib2 2026-04-26 21:39 536K
20260426T18Z_MSC_RDPS_WindV_IsbL-0001_RLatLon0.09_PT065H.grib2 2026-04-26 21:39 246K
20260426T18Z_MSC_RDPS_WindV_IsbL-0005_RLatLon0.09_PT065H.grib2 2026-04-26 21:39 289K
20260426T18Z_MSC_RDPS_WindV_IsbL-0010_RLatLon0.09_PT065H.grib2 2026-04-26 21:39 302K
20260426T18Z_MSC_RDPS_WindV_IsbL-0020_RLatLon0.09_PT065H.grib2 2026-04-26 21:39 319K
20260426T18Z_MSC_RDPS_WindV_IsbL-0030_RLatLon0.09_PT065H.grib2 2026-04-26 21:39 355K
20260426T18Z_MSC_RDPS_WindV_IsbL-0050_RLatLon0.09_PT065H.grib2 2026-04-26 21:39 351K
20260426T18Z_MSC_RDPS_WindV_IsbL-0100_RLatLon0.09_PT065H.grib2 2026-04-26 21:39 338K
20260426T18Z_MSC_RDPS_WindV_IsbL-0150_RLatLon0.09_PT065H.grib2 2026-04-26 21:39 400K
20260426T18Z_MSC_RDPS_WindV_IsbL-0175_RLatLon0.09_PT065H.grib2 2026-04-26 21:39 330K
20260426T18Z_MSC_RDPS_WindV_IsbL-0200_RLatLon0.09_PT065H.grib2 2026-04-26 21:39 344K
20260426T18Z_MSC_RDPS_WindV_IsbL-0225_RLatLon0.09_PT065H.grib2 2026-04-26 21:39 371K
20260426T18Z_MSC_RDPS_WindV_IsbL-0250_RLatLon0.09_PT065H.grib2 2026-04-26 21:39 373K
20260426T18Z_MSC_RDPS_WindV_IsbL-0275_RLatLon0.09_PT065H.grib2 2026-04-26 21:39 387K
20260426T18Z_MSC_RDPS_WindV_IsbL-0300_RLatLon0.09_PT065H.grib2 2026-04-26 21:39 383K
20260426T18Z_MSC_RDPS_WindV_IsbL-0350_RLatLon0.09_PT065H.grib2 2026-04-26 21:39 366K
20260426T18Z_MSC_RDPS_WindV_IsbL-0400_RLatLon0.09_PT065H.grib2 2026-04-26 21:39 366K
20260426T18Z_MSC_RDPS_WindV_IsbL-0450_RLatLon0.09_PT065H.grib2 2026-04-26 21:39 468K
20260426T18Z_MSC_RDPS_WindV_IsbL-0500_RLatLon0.09_PT065H.grib2 2026-04-26 21:39 466K
20260426T18Z_MSC_RDPS_WindV_IsbL-0550_RLatLon0.09_PT065H.grib2 2026-04-26 21:39 466K
20260426T18Z_MSC_RDPS_WindV_IsbL-0600_RLatLon0.09_PT065H.grib2 2026-04-26 21:39 473K
20260426T18Z_MSC_RDPS_WindV_IsbL-0650_RLatLon0.09_PT065H.grib2 2026-04-26 21:39 489K
20260426T18Z_MSC_RDPS_WindV_IsbL-0700_RLatLon0.09_PT065H.grib2 2026-04-26 21:39 507K
20260426T18Z_MSC_RDPS_WindV_IsbL-0750_RLatLon0.09_PT065H.grib2 2026-04-26 21:39 531K
20260426T18Z_MSC_RDPS_WindV_IsbL-0800_RLatLon0.09_PT065H.grib2 2026-04-26 21:39 573K
20260426T18Z_MSC_RDPS_WindV_IsbL-0850_RLatLon0.09_PT065H.grib2 2026-04-26 21:39 616K
20260426T18Z_MSC_RDPS_WindV_IsbL-0875_RLatLon0.09_PT065H.grib2 2026-04-26 21:39 637K
20260426T18Z_MSC_RDPS_WindV_IsbL-0900_RLatLon0.09_PT065H.grib2 2026-04-26 21:39 649K
20260426T18Z_MSC_RDPS_WindV_IsbL-0925_RLatLon0.09_PT065H.grib2 2026-04-26 21:39 657K
20260426T18Z_MSC_RDPS_WindV_IsbL-0950_RLatLon0.09_PT065H.grib2 2026-04-26 21:39 656K
20260426T18Z_MSC_RDPS_WindV_IsbL-0970_RLatLon0.09_PT065H.grib2 2026-04-26 21:39 797K
20260426T18Z_MSC_RDPS_WindV_IsbL-0985_RLatLon0.09_PT065H.grib2 2026-04-26 21:39 792K
20260426T18Z_MSC_RDPS_WindV_IsbL-1000_RLatLon0.09_PT065H.grib2 2026-04-26 21:39 832K
20260426T18Z_MSC_RDPS_WindV_IsbL-1015_RLatLon0.09_PT065H.grib2 2026-04-26 21:39 825K